Regional Weather Roundup
Issued by NWS New Orleans/Baton Rouge, LA

Home | Current Version | Previous Version | Text Only | Print | Product List | Glossary On
Versions: 1 2 3 4 5 6 7 8 9 10 11 12 13 14 15 16 17 18 19 20 21 22 23 24 25 26 27 28 29 30 31 32 33 34 35 36 37 38 39 40 41 42 43 44 45 46 47 48 49 50
000
ASUS44 KLIX 160410
RWRLIX
NEW ORLEANS REGIONAL WEATHER ROUNDUP
NATIONAL WEATHER SERVICE NEW ORLEANS LA
1100 PM CDT TUE APR 15 2014

NOTE: "FAIR" INDICATES FEW OR NO CLOUDS BELOW 12,000 FEET WITH NO
      SIGNIFICANT WEATHER AND/OR OBSTRUCTIONS TO VISIBILITY.
      SKY/WX - SKY CONDITION AND SIGNIFICANT WEATHER.
      TMP - AIR TEMPERATURE.     DP    - DEWPOINT TEMPERATURE.
      RH  - RELATIVE HUMIDITY.   PRES  - PRESSURE.
      HI  - HEAT INDEX.          WCI   - WIND CHILL INDEX.

*  THESE STATIONS ARE NOT NWS OR FAA STATIONS AND ARE NOT UNDER
   NWS QUALITY CONTROL.

LAZ038-040-048-061>063-065>067-069-160500-
SOUTHEAST LOUISIANA

CITY           SKY/WX    TMP DP  RH WIND       PRES   REMARKS
N.O. AUDUBON   NOT AVBL
N.O. INTL ARPT PTCLDY    53  32  44 N17       30.18F
N.O. LAKEFRONT CLEAR     54  34  46 N26       30.20S
N.O. DOWNTOWN*   N/A     54  28  37 N9G17     30.19F
SLIDELL        CLEAR     46  34  62 N5        30.20S
BATON ROUGE    CLEAR     46  33  60 NE5       30.21S
BOOTHVILLE     CLEAR     56  38  50 N13G28    30.16R
BELLE CHASSE   CLEAR     52  31  44 N6        30.17F
BOGALUSA*        N/A     44  35  72 N3        30.23R
GALLIANO*      CLEAR     53  38  56 N10       30.16F
NEW ROADS*       N/A     46  33  59 NE12      30.21F
GONZALES*        N/A     48  32  54 N5        30.19F
HAMMOND*       CLEAR     43  34  70 CALM      30.23S
HOUMA*           N/A     49  34  54 N12       30.17F
PORT FOURCHON* CLEAR     55  37  50 NE14G22   30.17S

$$

MSZ070-080>082-160500-
SOUTHERN MISSISSIPPI

CITY           SKY/WX    TMP DP  RH WIND       PRES   REMARKS
MCCOMB         CLEAR     40  33  76 N6        30.22R
GULFPORT       CLEAR     49  34  56 NW8       30.18S
BILOXI         CLEAR     49  35  57 N9        30.18S
PASCAGOULA     CLEAR     46  35  65 N8        30.18S

$$

COASTAL OBSERVATIONS
LAKE AND NEARSHORE STATIONS

STATION/POSITION TIME  TEMP    WIND        PRES    WAVE
                       AIR SEA DIR/SP/G            HT/PER
                 (UTC) (F)     (DEG/KT/KT) (MB)    (FT/S)
PASCAGOULA       0400   50      10/  9/ 12 1021.2
WAVELAND YACHT   0400   51 67  360/ 15/ 18 1021.5
GRAND ISLE       0400   56 66   20/ 20/ 25 1021.4
SOUTHWEST PASS   0400   59 58   10/ 19/ 21 1021.3
NEW CANAL        0400   55 64   10/ 18/ 23 1022.5
SHELL BEACH      0400   55 63  350/ 23/ 27 1021.7

OFFSHORE STATIONS

STATION/POSITION TIME  TEMP    WIND        PRES    WAVE
                       AIR SEA DIR/SP/G            HT/PER
                 (UTC) (F)     (DEG/KT/KT) (MB)    (FT/S)
64 S DAUPHIN ISL 0252   59 68   10/ 21/ 27 1020.4

$$




USA.gov is the U.S. government's official web portal to all federal, state and local government web resources and services.